Temperature
12 12 12 12 12 12 12 12 12 12 11 11 11 11 11 11 11 11 11 11 11 11 11 11 11 11 11 11 11 11 11 11 11 11 11 11 11 11 11 11 11 11 11
11 11 11 11 11 12 11 11 11 11 11 11 11 11 11 11 11 11 11 11 11 11 11 11 11 11 11 11 11 11 11 11 11 11 11 11 11 11 11 11 10 10 10
11 11 11 11 11 11 11 11 11 11 11 11 11 11 10 10 10 10 10 10 11 11 11 11 11 11 11 11 11 11 11 10 10 10 10 10 10 10 10 10 10 10 10
11 11 11 11 11 11 11 11 11 10 10 10 10 10 10 10 10 10 10 10 10 10 10 10 11 11 10 10 10 10 10 10 10 10 10 10 10 10 9 9 9 9 9
10 10 10 11 11 10 10 10 10 10 10 10 10 10 10 10 10 10 10 10 10 10 10 10 10 10 10 10 10 10 10 10 10 10 10 9 9 9 9 9 9 9 9
10 10 10 10 10 10 10 10 10 10 10 10 9 9 9 9 9 9 9 10 10 10 10 10 10 10 10 10 10 10 10 10 10 9 9 9 9 9 9 9 9 8 8
10 10 10 10 10 10 10 10 9 9 9 9 9 9 9 9 9 9 9 9 9 9 9 9 9 9 9 9 9 9 9 9 9 9 9 9 9 8 8 8 8 8 8
9 9 9 9 9 9 9 9 9 9 9 9 9 8 8 8 9 9 9 9 9 9 9 9 9 9 9 9 9 9 9 9 9 9 9 8 8 8 8 8 8 8 8
9 9 9 9 9 9 9 9 9 9 9 8 8 8 8 9 8 8 9 9 9 9 9 9 9 9 9 9 9 9 9 9 9 8 8 8 8 8 8 8 7 7 7
8 8 8 8 8 8 8 8 8 8 8 8 8 8 8 8 8 8 8 8 8 8 8 8 8 8 8 8 8 8 8 8 8 8 8 8 8 8 7 7 7 7 7
8 8 8 8 8 8 8 8 8 8 8 8 8 8 8 8 8 8 7 8 8 8 8 8 8 8 8 8 8 8 8 8 8 8 8 8 7 7 7 7 7 7 7
7 7 7 7 7 7 7 7 8 8 8 8 8 7 7 7 7 7 7 7 7 7 7 7 7 7 7 7 7 8 8 8 8 8 7 7 7 7 7 7 7 6 6
7 7 7 7 7 7 7 7 7 7 7 7 7 7 7 7 7 7 7 7 7 7 7 7 7 7 7 7 7 7 7 7 7 7 7 7 7 7 7 6 6 6 6
7 7 7 7 7 7 7 7 7 7 7 7 7 7 7 7 7 7 7 6 6 6 6 6 6 7 7 7 7 7 7 7 7 7 7 7 6 6 6 6 6 6 6
6 6 6 6 6 6 6 7 7 7 7 7 7 6 6 6 6 6 6 6 6 6 6 6 6 6 6 6 6 6 6 6 7 6 6 6 6 6 6 6 5 5 5
6 6 6 6 6 6 6 6 6 6 6 6 6 6 6 6 6 6 6 6 6 6 5 5 6 6 6 6 6 6 6 6 6 6 6 6 5 5 5 5 5 5 5
5 5 5 5 5 5 6 6 6 6 6 6 6 6 6 6 6 6 6 5 5 5 5 5 5 5 5 5 5 5 5 5 5 5 5 5 5 5 5 5 5 5 5
5 5 5 5 5 5 5 5 5 5 5 5 5 5 5 5 5 5 5 5 5 5 5 5 5 5 5 5 5 5 5 5 5 5 5 5 4 4 4 4 4 4 4
4 4 4 4 4 4 4 4 5 5 5 5 5 5 5 5 5 5 5 5 5 4 4 4 4 4 4 4 4 4 4 4 4 4 4 4 4 4 4 4 4 3 3
4 4 4 4 4 4 4 4 4 4 4 4 4 4 4 4 4 4 4 4 4 4 4 4 4 4 4 4 3 3 3 3 3 3 3 3 3 3 3 3 3 3 3
3 3 3 3 3 3 3 3 3 3 4 4 4 4 4 4 4 4 4 4 4 4 4 3 3 3 3 3 3 3 3 3 3 3 3 3 3 3 2 2 2 2 2
3 3 3 3 3 3 3 3 3 3 3 3 3 3 3 3 3 3 3 3 3 3 3 3 3 3 3 3 3 3 2 2 2 2 2 2 2 2 2 2 2 1 1
2 2 2 2 2 2 2 2 2 2 2 2 2 3 2 2 2 3 3 3 3 2 3 3 3 3 2 2 2 2 2 2 2 1 1 1 1 1 1 1 1 1 1
1 1 1 1 2 2 2 2 2 2 2 2 2 2 2 2 2 2 2 2 2 2 2 2 2 2 2 2 2 2 1 1 1 1 1 1 1 1 0 0 0 0 -0
1 1 1 1 1 1 1 1 1 1 1 1 1 1 1 1 1 1 1 1 1 1 1 1 2 1 1 1 1 1 1 1 0 0 0 0 0 -0 -0 -0 -0 -0 -1
0 0 0 0 0 0 1 1 1 1 1 1 1 1 1 1 1 1 1 1 1 1 1 1 1 1 1 1 1 1 0 0 -0 -0 -0 -0 -0 -1 -1 -1 -1 -1 -1
Wind_Speed
3 3 3 3 3 3 3 3 3 4 4 4 4 5 5 5 4 4 4 5 3 3 3 3 3 4 5 5 6 6 6 7 7 7 6 6 6 5 5 4 4 3 3
3 3 3 3 3 3 3 3 4 3 3 3 4 4 4 4 4 4 3 4 4 3 2 2 3 3 5 5 6 6 6 7 7 7 6 6 6 5 5 4 4 3 2
3 3 3 3 3 3 3 3 4 3 3 3 4 4 3 4 4 4 3 3 4 4 4 3 2 3 4 5 5 6 6 6 6 6 6 6 5 5 4 3 3 3 3
4 3 3 2 3 3 3 3 3 4 3 3 4 3 3 3 3 3 3 3 3 3 4 3 3 3 3 4 5 5 5 6 6 6 7 6 6 5 4 3 2 2 2
4 4 3 3 3 3 3 3 3 4 4 3 3 3 3 3 3 3 3 3 3 3 3 3 4 3 3 4 5 5 5 6 6 6 7 7 6 6 5 4 3 3 2
4 4 3 3 4 3 3 4 4 4 3 3 3 2 2 2 2 3 3 3 3 3 3 3 3 4 4 5 6 6 6 6 6 6 7 7 7 7 6 5 5 4 3
5 4 3 4 4 3 4 4 4 5 3 3 3 2 1 2 2 2 2 3 3 4 3 3 3 3 4 6 6 6 6 7 7 7 7 8 8 7 7 7 6 6 5
5 4 4 4 4 4 4 4 4 4 3 3 3 3 2 3 3 2 2 3 3 2 3 3 4 3 3 4 5 6 7 8 7 7 7 8 9 8 8 8 7 7 6
5 5 5 5 5 5 5 5 5 5 4 4 3 3 3 3 2 3 3 3 3 2 2 2 3 4 4 4 4 5 5 6 7 7 7 7 8 9 9 9 9 8 7
5 5 5 5 5 5 5 5 5 5 5 5 3 2 2 1 2 2 3 4 4 3 3 2 3 3 4 3 3 4 4 6 7 7 8 7 8 8 9 9 10 9 8
4 4 4 5 5 4 5 6 6 6 6 6 5 3 3 2 3 3 3 3 3 3 3 3 3 3 4 4 3 4 5 6 7 8 8 8 8 8 8 8 8 9 10
3 4 4 4 5 4 5 6 6 7 6 7 6 5 5 4 5 4 5 4 4 3 3 4 4 4 4 4 5 5 6 7 8 8 9 8 9 9 9 9 9 9 9
3 4 4 4 4 5 5 6 6 6 7 7 7 6 6 6 4 5 5 4 4 3 3 3 4 4 4 5 5 6 8 8 8 9 10 9 9 9 9 9 9 9 9
4 4 4 4 5 5 5 6 5 6 6 7 7 7 6 6 5 5 5 4 4 4 4 4 3 4 4 5 5 7 7 8 9 10 10 10 9 9 9 8 8 9 9
3 4 5 5 5 5 5 5 5 6 6 6 7 7 7 6 5 5 5 6 6 5 6 5 3 3 4 5 6 6 7 8 9 9 9 9 8 7 7 8 8 8 9
4 5 5 5 5 5 5 5 5 5 6 5 5 7 7 5 5 5 5 5 6 6 6 4 4 3 4 4 5 6 6 7 8 8 7 7 7 7 7 8 8 8 9
4 4 5 5 5 5 5 6 6 6 6 6 5 7 8 7 6 6 6 6 6 6 6 5 4 4 5 5 4 4 5 5 6 7 7 7 8 8 8 8 8 8 8
4 4 4 5 5 5 6 6 6 6 6 6 6 6 7 6 7 6 6 7 6 6 6 7 5 4 5 5 4 4 4 4 5 5 7 7 7 7 7 8 8 8 8
3 3 4 4 5 6 6 6 6 7 7 7 7 7 7 7 8 6 7 7 6 5 5 6 5 4 4 4 4 3 4 3 3 4 5 6 7 7 7 7 7 7 7
3 4 4 5 5 6 6 6 6 7 6 6 6 7 7 7 8 7 7 7 6 6 6 6 5 4 3 4 4 4 3 3 3 2 3 4 5 6 7 7 7 7 7
3 4 4 4 5 5 5 6 6 6 6 6 6 6 7 7 7 7 6 6 6 6 6 6 5 4 4 4 5 4 4 3 3 3 2 2 3 3 4 5 6 6 7
3 3 4 4 4 4 5 6 6 6 6 6 6 6 5 6 7 7 7 7 7 7 7 6 6 6 6 6 5 4 3 3 3 2 2 3 3 3 3 4 4 5 6
3 4 4 4 4 4 4 5 6 5 5 5 5 5 4 4 6 6 6 6 6 6 7 6 7 7 6 6 6 5 5 5 4 2 2 3 3 3 3 3 4 5 6
3 4 4 4 4 4 4 5 5 5 4 5 5 5 5 5 5 5 4 5 5 5 5 5 5 5 4 4 5 4 4 3 2 2 2 3 3 3 3 3 3 4 4
3 3 4 4 4 4 4 5 4 3 4 4 4 4 5 5 5 5 5 4 3 3 2 3 2 2 2 3 4 3 3 3 2 3 2 2 2 3 3 3 2 3 3
3 3 3 4 4 4 4 4 4 3 3 3 3 4 4 5 5 6 5 5 5 3 2 1 1 1 2 3 4 4 4 4 2 2 3 2 2 2 2 2 2 2 3
Wind_Direction
181 174 171 174 177 174 175 178 182 180 178 176 176 175 174 174 177 171 143 133 151 161 161 158 155 159 156 148 150 148 148 146 140 136 133 130 124 120 113 105 108 107 98
182 178 176 174 179 183 181 181 183 181 178 176 176 179 179 179 179 176 168 149 150 158 167 180 186 180 170 161 160 153 156 158 154 152 148 143 134 125 118 111 100 98 109
186 181 181 181 179 182 179 177 178 174 174 173 178 180 177 181 176 174 175 174 168 171 181 196 206 199 187 177 168 164 162 162 166 167 165 161 152 144 140 130 117 104 89
185 181 181 185 176 173 172 177 178 177 177 180 180 179 179 176 183 183 178 179 191 195 189 200 216 212 208 199 185 176 174 172 176 183 178 171 169 166 161 156 151 143 129
187 182 183 185 183 175 174 180 181 179 181 179 179 178 186 189 187 191 193 192 198 207 211 191 198 213 219 208 202 194 189 190 191 193 189 182 181 181 182 183 182 179 181
187 184 183 187 188 186 183 183 176 175 180 176 172 174 182 199 199 203 209 208 204 211 223 232 218 216 215 215 210 204 200 203 204 199 196 193 195 195 198 201 198 198 202
186 184 184 186 192 198 197 187 178 169 173 170 173 178 191 211 218 220 218 215 209 216 221 232 240 240 223 212 208 210 211 211 209 207 205 203 206 207 210 213 210 210 218
187 186 187 191 194 197 195 189 182 184 182 185 190 191 200 208 213 220 226 222 221 219 226 231 234 238 239 220 211 210 219 217 215 214 215 214 213 215 218 220 218 218 223
194 190 193 194 196 198 199 196 197 196 192 195 208 208 203 216 209 203 220 227 228 223 226 232 237 236 230 217 220 214 218 217 217 221 225 227 225 227 226 224 226 227 229
203 198 198 200 201 205 205 202 203 205 200 199 203 232 257 240 210 201 205 218 227 230 234 235 237 234 227 220 217 221 222 230 230 232 234 235 239 238 231 230 233 235 236
199 201 203 202 206 211 213 208 205 206 206 207 205 206 218 236 240 228 225 220 227 229 233 233 236 235 230 224 221 227 224 234 238 242 242 241 241 243 240 242 244 245 245
198 202 204 208 210 212 214 213 212 210 211 210 211 212 214 215 216 225 232 232 238 244 242 236 231 233 234 232 231 231 230 235 240 246 246 244 243 243 244 249 252 253 252
206 206 204 210 211 213 213 212 215 216 215 213 215 220 224 229 225 228 231 235 249 261 251 242 237 235 233 236 237 233 233 231 234 243 247 247 247 245 247 249 252 257 261
217 212 206 207 210 211 212 212 217 220 220 219 221 223 225 228 225 226 227 228 238 248 247 246 247 237 237 239 240 234 238 231 235 241 245 248 248 248 248 248 252 256 262
220 215 213 211 211 211 212 215 220 219 221 224 223 224 226 226 226 228 227 226 230 244 248 243 238 236 237 243 239 238 240 233 235 238 242 242 241 243 244 245 250 256 258
216 216 217 215 215 214 214 215 221 221 220 225 224 224 225 224 222 221 222 229 233 241 252 247 249 248 244 249 242 244 241 235 232 228 230 233 236 239 242 243 246 252 256
221 220 219 218 218 218 218 218 221 218 220 223 223 226 227 226 223 223 221 226 230 233 245 257 259 253 250 245 248 248 245 241 236 225 226 230 233 236 239 241 242 246 249
231 228 225 223 225 223 223 222 223 223 223 223 226 228 231 224 223 224 221 224 227 231 237 243 246 245 252 247 250 253 256 248 241 226 225 230 233 234 237 240 241 242 242
237 233 229 228 229 227 226 227 227 227 229 229 227 227 229 224 224 224 225 226 226 227 234 237 242 250 255 249 251 259 256 249 250 230 227 233 236 237 236 241 244 242 244
241 238 237 236 236 235 231 228 228 228 230 232 231 229 228 225 227 225 227 228 225 223 224 225 231 238 246 245 236 243 246 247 258 250 239 244 242 242 237 236 237 240 247
257 248 244 244 243 238 234 231 228 230 232 234 236 236 235 231 232 230 229 228 223 224 221 221 224 231 231 226 228 233 237 236 266 254 253 252 244 247 241 233 231 239 247
269 261 249 246 249 245 232 235 234 233 234 234 236 240 242 232 227 226 228 232 230 227 223 223 228 228 232 231 227 219 225 236 252 226 241 261 254 262 261 246 241 249 253
259 259 258 252 253 250 232 233 233 236 238 240 239 238 241 239 230 224 221 222 232 238 238 237 232 234 235 226 217 222 226 237 244 220 239 264 265 268 269 255 258 253 256
262 262 260 258 256 256 244 239 235 235 236 239 239 235 233 235 229 221 221 222 230 238 241 242 241 246 242 226 223 231 229 234 269 259 238 254 263 270 272 257 260 253 250
266 264 260 258 254 256 246 241 238 233 228 234 236 236 231 233 222 213 209 214 222 245 254 239 243 240 217 204 188 180 198 203 242 248 235 237 255 279 277 268 254 239 240
268 269 266 260 254 254 245 240 236 229 226 229 234 235 230 229 222 214 212 211 218 227 205 182 199 216 226 201 199 212 215 213 229 237 214 219 238 255 265 259 263 256 255
Height
1526 1527 1528 1529 1530 1531 1532 1533 1535 1536 1537 1538 1540 1541 1542 1544 1545 1547 1547 1548 1549 1550 1550 1551 1552 1553 1554 1554 1555 1555 1556 1557 1557 1557 1557 1557 1558 1558 1557 1557 1558 1558 1557
1523 1525 1526 1527 1528 1529 1530 1531 1533 1534 1535 1536 1538 1539 1540 1542 1543 1545 1546 1546 1547 1548 1549 1550 1551 1552 1552 1553 1554 1554 1555 1555 1556 1556 1556 1556 1556 1556 1557 1556 1556 1557 1557
1521 1523 1524 1524 1526 1527 1528 1529 1530 1532 1533 1534 1535 1537 1538 1540 1541 1542 1543 1544 1545 1546 1547 1548 1549 1550 1551 1551 1552 1552 1553 1554 1554 1555 1555 1555 1555 1555 1555 1555 1555 1555 1555
1519 1520 1521 1522 1523 1524 1525 1527 1528 1529 1531 1532 1533 1535 1536 1537 1538 1540 1541 1542 1543 1544 1545 1546 1547 1548 1549 1549 1550 1551 1551 1552 1552 1553 1553 1553 1554 1554 1554 1554 1554 1554 1554
1517 1518 1519 1520 1521 1522 1523 1524 1526 1527 1529 1530 1531 1533 1534 1535 1536 1537 1539 1540 1541 1542 1543 1544 1545 1546 1546 1547 1548 1548 1549 1550 1550 1551 1551 1551 1552 1552 1552 1552 1553 1553 1553
1514 1515 1516 1518 1519 1520 1521 1522 1523 1525 1526 1528 1529 1530 1532 1533 1534 1535 1536 1537 1538 1539 1540 1541 1542 1543 1544 1545 1545 1546 1547 1547 1548 1549 1549 1549 1549 1550 1550 1550 1551 1551 1551
1511 1512 1513 1515 1516 1517 1518 1520 1521 1522 1524 1525 1527 1528 1529 1530 1531 1532 1533 1534 1535 1536 1537 1538 1539 1540 1541 1542 1542 1543 1544 1545 1545 1546 1546 1547 1547 1548 1548 1548 1548 1549 1549
1508 1509 1511 1512 1513 1514 1516 1517 1518 1520 1521 1523 1525 1526 1528 1530 1528 1529 1530 1531 1533 1533 1534 1535 1536 1537 1538 1538 1539 1540 1541 1542 1543 1543 1544 1544 1545 1545 1546 1546 1546 1546 1546
1505 1507 1508 1509 1510 1512 1513 1514 1516 1517 1518 1520 1522 1524 1525 1526 1526 1526 1527 1528 1529 1530 1531 1532 1532 1533 1534 1535 1536 1537 1538 1539 1539 1540 1541 1541 1542 1542 1543 1543 1543 1544 1544
1502 1504 1505 1506 1507 1509 1510 1511 1513 1514 1516 1517 1519 1520 1522 1522 1524 1524 1525 1525 1526 1527 1527 1528 1529 1530 1530 1531 1532 1533 1534 1535 1536 1537 1537 1538 1539 1539 1539 1540 1540 1540 1540
1499 1500 1502 1503 1504 1505 1507 1508 1510 1511 1512 1514 1516 1517 1518 1519 1520 1521 1521 1522 1523 1524 1524 1525 1525 1526 1527 1527 1528 1529 1530 1531 1532 1533 1534 1534 1535 1536 1536 1536 1537 1537 1537
1496 1497 1498 1500 1501 1502 1503 1505 1506 1508 1509 1510 1512 1513 1515 1516 1517 1518 1518 1519 1520 1520 1521 1521 1522 1522 1523 1523 1524 1526 1527 1528 1528 1529 1530 1530 1531 1531 1532 1532 1533 1533 1533
1492 1493 1494 1496 1497 1499 1500 1501 1503 1504 1505 1506 1508 1509 1511 1512 1513 1514 1515 1515 1516 1516 1517 1517 1518 1519 1519 1520 1520 1521 1522 1523 1524 1525 1525 1526 1526 1527 1527 1528 1528 1528 1528
1488 1490 1491 1492 1494 1495 1496 1498 1499 1500 1501 1502 1504 1505 1506 1507 1509 1510 1511 1512 1512 1513 1513 1513 1514 1514 1515 1516 1516 1517 1518 1519 1519 1520 1520 1521 1522 1522 1522 1523 1523 1524 1523
1485 1486 1487 1488 1490 1491 1492 1494 1494 1496 1497 1498 1499 1501 1502 1503 1504 1505 1506 1507 1509 1509 1509 1509 1510 1510 1511 1512 1512 1513 1513 1514 1515 1515 1515 1516 1516 1517 1517 1518 1518 1518 1518
1481 1482 1483 1484 1486 1487 1488 1489 1490 1491 1493 1494 1495 1496 1497 1498 1499 1500 1501 1503 1504 1505 1504 1504 1505 1506 1507 1507 1508 1508 1508 1509 1509 1510 1510 1511 1511 1512 1512 1512 1512 1513 1512
1477 1478 1479 1480 1481 1482 1484 1485 1486 1487 1488 1489 1490 1491 1492 1494 1494 1495 1496 1498 1498 1500 1499 1500 1501 1501 1502 1502 1503 1503 1503 1504 1504 1504 1505 1506 1506 1507 1507 1507 1507 1507 1507
1474 1474 1475 1476 1477 1478 1479 1481 1481 1482 1483 1484 1485 1486 1487 1488 1489 1490 1491 1492 1493 1494 1495 1495 1496 1496 1497 1498 1498 1498 1498 1499 1499 1499 1500 1500 1501 1501 1501 1501 1502 1501 1501
1471 1471 1472 1472 1473 1474 1475 1476 1477 1478 1479 1479 1480 1481 1482 1483 1484 1485 1486 1487 1488 1489 1490 1491 1490 1491 1492 1493 1493 1493 1493 1493 1494 1494 1494 1495 1495 1495 1496 1496 1496 1496 1496
1467 1468 1468 1469 1469 1470 1471 1472 1473 1474 1474 1475 1476 1476 1477 1478 1479 1479 1480 1482 1483 1484 1485 1486 1486 1486 1487 1488 1488 1488 1488 1489 1489 1489 1489 1490 1490 1490 1490 1490 1491 1491 1490
1464 1464 1465 1465 1466 1466 1467 1467 1468 1469 1470 1470 1471 1471 1472 1473 1473 1474 1475 1476 1478 1479 1480 1480 1481 1481 1482 1483 1483 1483 1484 1484 1484 1485 1485 1485 1485 1486 1485 1485 1485 1485 1485
1460 1460 1461 1461 1462 1462 1463 1463 1464 1464 1465 1466 1466 1467 1467 1468 1469 1469 1470 1471 1473 1474 1474 1475 1476 1476 1477 1478 1478 1479 1479 1479 1479 1481 1481 1481 1481 1481 1481 1481 1480 1480 1480
1456 1456 1456 1457 1457 1458 1459 1459 1460 1460 1461 1461 1462 1462 1463 1463 1464 1465 1466 1467 1467 1468 1469 1471 1471 1471 1472 1473 1474 1474 1475 1475 1475 1476 1476 1476 1477 1476 1476 1476 1475 1475 1474
1452 1452 1452 1453 1453 1454 1455 1455 1456 1456 1456 1457 1457 1458 1459 1459 1460 1461 1461 1462 1463 1463 1465 1466 1466 1467 1468 1468 1469 1470 1470 1470 1470 1472 1472 1472 1472 1472 1472 1471 1471 1470 1469
1448 1449 1449 1449 1449 1450 1450 1451 1452 1452 1452 1452 1453 1454 1455 1455 1456 1457 1458 1458 1458 1459 1460 1461 1462 1463 1463 1464 1465 1466 1466 1466 1466 1467 1468 1468 1467 1467 1467 1466 1466 1466 1465
1445 1445 1445 1445 1445 1446 1446 1447 1448 1448 1448 1449 1449 1450 1451 1451 1452 1453 1454 1454 1455 1456 1457 1457 1458 1458 1459 1460 1460 1461 1461 1462 1462 1462 1463 1464 1463 1463 1462 1462 1462 1462 1461